"read_dt","SO2 (ppb)","flags","PMT voltage (V)","lamp voltage (V)","lamp intensity (Hz)","internal temp (C)","react chamber temp (C)","sample flow (l/min)","pres (mmHg)","SO2 bkg (ppb)","SO2 coefficient"
2013-11-08 00:00:00,7423E-4,5C000000,-0724,0961,10804,022.9,045.2,0.404,745.7,01.17,0.508
2013-11-08 00:01:00,5958E-4,5C000000,-0724,0961,10873,022.9,045.1,0.405,745.7,01.17,0.508
2013-11-08 00:02:00,6906E-4,5C000000,-0724,0961,10988,022.9,045.2,0.405,745.7,01.17,0.508
2013-11-08 00:03:00,7328E-4,5C000000,-0724,0961,10885,022.9,045.2,0.404,745.7,01.17,0.508
2013-11-08 00:04:00,7246E-4,5C000000,-0724,0961,10983,022.9,045.2,0.404,745.7,01.17,0.508
2013-11-08 00:05:00,6629E-4,5C000000,-0724,0961,10814,022.9,045.2,0.404,745.7,01.17,0.508
2013-11-08 00:06:00,7390E-4,5C000000,-0724,0960,10930,022.9,045.2,0.405,745.7,01.17,0.508
2013-11-08 00:07:00,8084E-4,5C000000,-0724,0960,11055,022.9,045.2,0.404,745.7,01.17,0.508
2013-11-08 00:08:00,7019E-4,5C000000,-0724,0959,11080,022.9,045.2,0.404,745.7,01.17,0.508
2013-11-08 00:09:00,7022E-4,5C000000,-0724,0961,10899,022.9,045.2,0.404,745.6,01.17,0.508
2013-11-08 00:10:00,7269E-4,5C000000,-0724,0962,10873,022.9,045.2,0.405,745.6,01.17,0.508
2013-11-08 00:11:00,6316E-4,5C000000,-0724,0960,10962,022.9,045.2,0.404,745.6,01.17,0.508
2013-11-08 00:12:00,7211E-4,5C000000,-0724,0959,10931,022.9,045.2,0.404,745.7,01.17,0.508
2013-11-08 00:13:00,7394E-4,5C000000,-0724,0959,10967,022.9,045.2,0.405,745.6,01.17,0.508
2013-11-08 00:14:00,7213E-4,5C000000,-0724,0958,10898,022.9,045.2,0.404,745.6,01.17,0.508
2013-11-08 00:15:00,8572E-4,5C000000,-0724,0960,10999,022.9,045.2,0.404,745.6,01.17,0.508
2013-11-08 00:16:00,8559E-4,5C000000,-0724,0960,11074,022.9,045.2,0.404,745.6,01.17,0.508
2013-11-08 00:17:00,8984E-4,5C000000,-0724,0960,10997,022.9,045.2,0.405,745.6,01.17,0.508
2013-11-08 00:18:00,9081E-4,5C000000,-0724,0959,10727,022.9,045.2,0.404,745.6,01.17,0.508
2013-11-08 00:19:00,8538E-4,5C000000,-0724,0960,11078,022.9,045.2,0.404,745.6,01.17,0.508
2013-11-08 00:20:00,8828E-4,5C000000,-0724,0961,10838,022.9,045.2,0.404,745.6,01.17,0.508
2013-11-08 00:21:00,8803E-4,5C000000,-0724,0960,10942,022.9,045.2,0.404,745.5,01.17,0.508
2013-11-08 00:22:00,8318E-4,5C000000,-0724,0960,10870,022.9,045.2,0.404,745.6,01.17,0.508
2013-11-08 00:23:00,9383E-4,5C000000,-0724,0961,10882,022.9,045.2,0.404,745.5,01.17,0.508
2013-11-08 00:24:00,1013E-3,5C000000,-0724,0960,11012,022.9,045.2,0.405,745.5,01.17,0.508
2013-11-08 00:25:00,9306E-4,5C000000,-0724,0962,10835,022.9,045.2,0.404,745.5,01.17,0.508
2013-11-08 00:26:00,9595E-4,5C000000,-0724,0962,10966,022.9,045.2,0.404,745.5,01.17,0.508
2013-11-08 00:27:00,9531E-4,5C000000,-0724,0961,10951,022.9,045.2,0.404,745.5,01.17,0.508
2013-11-08 00:28:00,9464E-4,5C000000,-0724,0961,10794,022.9,045.2,0.405,745.5,01.17,0.508
2013-11-08 00:29:00,9850E-4,5C000000,-0724,0962,10944,022.9,045.2,0.404,745.5,01.17,0.508
2013-11-08 00:30:00,1068E-3,5C000000,-0724,0961,10948,022.9,045.2,0.404,745.5,01.17,0.508
2013-11-08 00:31:00,9984E-4,5C000000,-0724,0962,11000,022.9,045.2,0.404,745.4,01.17,0.508
2013-11-08 00:32:00,1089E-3,5C000000,-0724,0961,10866,022.9,045.2,0.404,745.5,01.17,0.508
2013-11-08 00:33:00,1044E-3,5C000000,-0724,0961,10795,022.9,045.2,0.404,745.4,01.17,0.508
2013-11-08 00:34:00,1090E-3,5C000000,-0724,0961,10950,022.9,045.2,0.404,745.4,01.17,0.508
2013-11-08 00:35:00,9988E-4,5C000000,-0724,0961,10878,022.9,045.2,0.404,745.4,01.17,0.508
2013-11-08 00:36:00,1050E-3,5C000000,-0724,0961,10896,022.9,045.2,0.404,745.4,01.17,0.508
2013-11-08 00:37:00,1074E-3,5C000000,-0724,0962,10910,022.9,045.2,0.404,745.4,01.17,0.508
2013-11-08 00:38:00,1058E-3,5C000000,-0724,0961,10854,022.9,045.2,0.404,745.3,01.17,0.508
2013-11-08 00:39:00,1023E-3,5C000000,-0724,0962,10804,022.9,045.2,0.404,745.3,01.17,0.508
2013-11-08 00:40:00,1065E-3,5C000000,-0724,0961,10861,022.9,045.2,0.404,745.4,01.17,0.508
"read_dt","SO2 (ppb)","flags","PMT voltage (V)","lamp voltage (V)","lamp intensity (Hz)","internal temp (C)","react chamber temp (C)","sample flow (l/min)","pres (mmHg)","SO2 bkg (ppb)","SO2 coefficient"
2013-11-08 00:43:00,1130E-3,5C000000,-0724,0962,10890,022.9,045.2,0.404,745.4,01.17,0.508
2013-11-08 00:44:00,1084E-3,5C000000,-0724,0962,10803,022.9,045.2,0.404,745.4,01.17,0.508
2013-11-08 00:45:00,9948E-4,5C000000,-0724,0962,11017,022.9,045.2,0.404,745.5,01.17,0.508
2013-11-08 00:46:00,1034E-3,5C000000,-0724,0962,10920,022.9,045.2,0.404,745.5,01.17,0.508
2013-11-08 00:47:00,1003E-3,5C000000,-0724,0962,11016,022.9,045.2,0.405,745.5,01.17,0.508
2013-11-08 00:48:00,1121E-3,5C000000,-0724,0962,10962,022.9,045.2,0.404,745.5,01.17,0.508
2013-11-08 00:49:00,1113E-3,5C000000,-0724,0961,10976,022.9,045.2,0.404,745.5,01.17,0.508
2013-11-08 00:50:00,1093E-3,5C000000,-0724,0962,10875,022.9,045.1,0.404,745.4,01.17,0.508
2013-11-08 00:51:00,9475E-4,5C000000,-0724,0962,10821,022.9,045.2,0.405,745.4,01.17,0.508
2013-11-08 00:52:00,1156E-3,5C000000,-0724,0962,10874,022.8,045.2,0.404,745.4,01.17,0.508
2013-11-08 00:53:00,1080E-3,5C000000,-0724,0962,11042,022.8,045.1,0.404,745.4,01.17,0.508
2013-11-08 00:54:00,1068E-3,5C000000,-0724,0961,10857,022.8,045.2,0.405,745.4,01.17,0.508
2013-11-08 00:55:00,1178E-3,5C000000,-0724,0962,11037,022.8,045.2,0.404,745.4,01.17,0.508
2013-11-08 00:56:00,1256E-3,5C000000,-0724,0962,10933,022.8,045.2,0.405,745.4,01.17,0.508
2013-11-08 00:57:00,1114E-3,5C000000,-0724,0962,10879,022.8,045.2,0.404,745.4,01.17,0.508
2013-11-08 00:58:00,1233E-3,5C000000,-0724,0962,10837,022.8,045.2,0.404,745.4,01.17,0.508
2013-11-08 00:59:00,1354E-3,5C000000,-0724,0961,10973,022.8,045.1,0.405,745.4,01.17,0.508
2013-11-08 01:00:00,1273E-3,5C000000,-0724,0961,10925,022.8,045.1,0.405,745.4,01.17,0.508
2013-11-08 01:01:00,1277E-3,5C000000,-0724,0962,10970,022.8,045.2,0.404,745.4,01.17,0.508
2013-11-08 01:02:00,1363E-3,5C000000,-0724,0962,10979,022.8,045.2,0.404,745.4,01.17,0.508
2013-11-08 01:03:00,1274E-3,5C000000,-0724,0961,10945,022.8,045.2,0.405,745.4,01.17,0.508
2013-11-08 01:04:00,1417E-3,5C000000,-0724,0962,10915,022.8,045.2,0.404,745.4,01.17,0.508
2013-11-08 01:05:00,1474E-3,5C000000,-0724,0961,10841,022.8,045.2,0.404,745.4,01.17,0.508
2013-11-08 01:06:00,1395E-3,5C000000,-0724,0961,10980,022.8,045.2,0.404,745.3,01.17,0.508
2013-11-08 01:07:00,1329E-3,5C000000,-0724,0961,10817,022.8,045.2,0.405,745.3,01.17,0.508
2013-11-08 01:08:00,1447E-3,5C000000,-0724,0961,10994,022.8,045.2,0.405,745.3,01.17,0.508
2013-11-08 01:09:00,1489E-3,5C000000,-0724,0962,10951,022.8,045.2,0.405,745.4,01.17,0.508
2013-11-08 01:10:00,1368E-3,5C000000,-0724,0961,11015,022.8,045.2,0.404,745.3,01.17,0.508
2013-11-08 01:11:00,1487E-3,5C000000,-0724,0961,11013,022.8,045.2,0.404,745.3,01.17,0.508
2013-11-08 01:12:00,1440E-3,5C000000,-0724,0961,10959,022.8,045.2,0.404,745.3,01.17,0.508
2013-11-08 01:13:00,1378E-3,5C000000,-0724,0961,10936,022.9,045.2,0.405,745.4,01.17,0.508
2013-11-08 01:14:00,1327E-3,5C000000,-0724,0961,10978,022.8,045.2,0.404,745.3,01.17,0.508
2013-11-08 01:15:00,1367E-3,5C000000,-0724,0962,10808,022.8,045.2,0.404,745.4,01.17,0.508
2013-11-08 01:16:00,1362E-3,5C000000,-0724,0962,10922,022.8,045.2,0.404,745.4,01.17,0.508
2013-11-08 01:17:00,1366E-3,5C000000,-0724,0961,10780,022.8,045.2,0.405,745.4,01.17,0.508
2013-11-08 01:18:00,1326E-3,5C000000,-0724,0960,10945,022.8,045.2,0.404,745.4,01.17,0.508
2013-11-08 01:19:00,1343E-3,5C000000,-0724,0962,10844,022.9,045.2,0.404,745.4,01.17,0.508
2013-11-08 01:20:00,1470E-3,5C000000,-0724,0961,10914,022.8,045.2,0.404,745.4,01.17,0.508
2013-11-08 01:21:00,1342E-3,5C000000,-0724,0961,10901,022.8,045.2,0.404,745.4,01.17,0.508
2013-11-08 01:22:00,1408E-3,5C000000,-0724,0962,11058,022.8,045.2,0.405,745.4,01.17,0.508
2013-11-08 01:23:00,1388E-3,5C000000,-0724,0962,10926,022.9,045.2,0.404,745.3,01.17,0.508
2013-11-08 01:24:00,1355E-3,5C000000,-0724,0962,10899,022.9,045.2,0.404,745.3,01.17,0.508
2013-11-08 01:25:00,1502E-3,5C000000,-0724,0962,11002,022.9,045.2,0.404,745.3,01.17,0.508
2013-11-08 01:26:00,1429E-3,5C000000,-0724,0961,10948,022.8,045.1,0.404,745.3,01.17,0.508
2013-11-08 01:27:00,1500E-3,5C000000,-0724,0962,11003,022.8,045.1,0.405,745.3,01.17,0.508
2013-11-08 01:28:00,1495E-3,5C000000,-0724,0962,10854,022.9,045.1,0.404,745.3,01.17,0.508
2013-11-08 01:29:00,1520E-3,5C000000,-0724,0962,10898,022.9,045.2,0.404,745.3,01.17,0.508
2013-11-08 01:30:00,1661E-3,5C000000,-0724,0962,10887,022.9,045.2,0.404,745.3,01.17,0.508
2013-11-08 01:31:00,1624E-3,5C000000,-0724,0962,10916,022.9,045.2,0.404,745.3,01.17,0.508
2013-11-08 01:32:00,1536E-3,5C000000,-0724,0962,10948,022.9,045.2,0.405,745.3,01.17,0.508
2013-11-08 01:33:00,1658E-3,5C000000,-0724,0962,10948,022.9,045.2,0.404,745.3,01.17,0.508
2013-11-08 01:34:00,1591E-3,5C000000,-0724,0962,10929,022.9,045.2,0.404,745.3,01.17,0.508
2013-11-08 01:35:00,1664E-3,5C000000,-0724,0963,10786,022.9,045.2,0.404,745.3,01.17,0.508
2013-11-08 01:36:00,1698E-3,5C000000,-0724,0961,10882,022.9,045.2,0.404,745.3,01.17,0.508
2013-11-08 01:37:00,1615E-3,5C000000,-0724,0962,10898,022.9,045.2,0.405,745.3,01.17,0.508
2013-11-08 01:38:00,1695E-3,5C000000,-0724,0962,10830,022.9,045.2,0.404,745.3,01.17,0.508
2013-11-08 01:39:00,1698E-3,5C000000,-0724,0961,10938,022.9,045.2,0.404,745.3,01.17,0.508
2013-11-08 01:40:00,1782E-3,5C000000,-0724,0961,11024,022.9,045.2,0.404,745.3,01.17,0.508
2013-11-08 01:41:00,1648E-3,5C000000,-0724,0962,10938,022.9,045.2,0.404,745.3,01.17,0.508
2013-11-08 01:42:00,1741E-3,5C000000,-0724,0961,10823,022.9,045.2,0.404,745.3,01.17,0.508
2013-11-08 01:43:00,1687E-3,5C000000,-0724,0962,10935,022.9,045.2,0.404,745.3,01.17,0.508
2013-11-08 01:44:00,1673E-3,5C000000,-0724,0962,10925,022.9,045.2,0.404,745.3,01.17,0.508
2013-11-08 01:45:00,1567E-3,5C000000,-0724,0962,10908,022.9,045.2,0.404,745.3,01.17,0.508
2013-11-08 01:46:00,1563E-3,5C000000,-0724,0962,10999,022.9,045.2,0.404,745.3,01.17,0.508
2013-11-08 01:47:00,1530E-3,5C000000,-0724,0961,10979,022.9,045.2,0.404,745.3,01.17,0.508
2013-11-08 01:48:00,1507E-3,5C000000,-0724,0962,10970,022.9,045.2,0.404,745.2,01.17,0.508
2013-11-08 01:49:00,1592E-3,5C000000,-0724,0962,10943,022.9,045.2,0.404,745.2,01.17,0.508
2013-11-08 01:50:00,1583E-3,5C000000,-0724,0962,10955,022.9,045.2,0.404,745.2,01.17,0.508
2013-11-08 01:51:00,1677E-3,5C000000,-0724,0961,10937,022.9,045.2,0.404,745.2,01.17,0.508
2013-11-08 01:52:00,1571E-3,5C000000,-0724,0962,10978,022.9,045.2,0.404,745.2,01.17,0.508
2013-11-08 01:53:00,1675E-3,5C000000,-0724,0962,10866,022.9,045.1,0.404,745.2,01.17,0.508
2013-11-08 01:54:00,1805E-3,5C000000,-0724,0962,10963,023.0,045.2,0.405,745.2,01.17,0.508
2013-11-08 01:55:00,1681E-3,5C000000,-0724,0963,10993,022.9,045.2,0.404,745.2,01.17,0.508
2013-11-08 01:56:00,1727E-3,5C000000,-0724,0962,10781,022.9,045.2,0.404,745.2,01.17,0.508
2013-11-08 01:57:00,1610E-3,5C000000,-0724,0963,10935,022.9,045.2,0.404,745.3,01.17,0.508
2013-11-08 01:58:00,1734E-3,5C000000,-0724,0962,10946,022.9,045.2,0.404,745.2,01.17,0.508
2013-11-08 01:59:00,1686E-3,5C000000,-0724,0962,10738,022.9,045.2,0.404,745.2,01.17,0.508
2013-11-08 02:00:00,1655E-3,5C000000,-0724,0962,10927,022.9,045.2,0.404,745.3,01.17,0.508
2013-11-08 02:01:00,1755E-3,5C000000,-0724,0962,10961,022.9,045.2,0.404,745.3,01.17,0.508
2013-11-08 02:02:00,1791E-3,5C000000,-0724,0961,10934,022.9,045.2,0.404,745.3,01.17,0.508
2013-11-08 02:03:00,1699E-3,5C000000,-0724,0961,10899,022.9,045.2,0.404,745.2,01.17,0.508
2013-11-08 02:04:00,1695E-3,5C000000,-0724,0962,10868,023.0,045.2,0.404,745.2,01.17,0.508
2013-11-08 02:05:00,1526E-3,5C000000,-0724,0963,10963,023.0,045.2,0.404,745.2,01.17,0.508
2013-11-08 02:06:00,1696E-3,5C000000,-0724,0962,10959,023.0,045.2,0.404,745.2,01.17,0.508
2013-11-08 02:07:00,1630E-3,5C000000,-0724,0962,10805,023.0,045.2,0.404,745.3,01.17,0.508
2013-11-08 02:08:00,1676E-3,5C000000,-0724,0962,10936,023.0,045.2,0.404,745.2,01.17,0.508
2013-11-08 02:09:00,1575E-3,5C000000,-0724,0962,10873,023.0,045.1,0.404,745.2,01.17,0.508
2013-11-08 02:10:00,1589E-3,5C000000,-0724,0962,10827,023.0,045.2,0.404,745.3,01.17,0.508
2013-11-08 02:11:00,1622E-3,5C000000,-0724,0961,10876,023.0,045.2,0.404,745.2,01.17,0.508
2013-11-08 02:12:00,1485E-3,5C000000,-0724,0961,10881,023.0,045.2,0.404,745.2,01.17,0.508
2013-11-08 02:13:00,1718E-3,5C000000,-0724,0962,10828,023.0,045.2,0.404,745.2,01.17,0.508
2013-11-08 02:14:00,1772E-3,5C000000,-0724,0962,10962,023.0,045.2,0.404,745.2,01.17,0.508
2013-11-08 02:15:00,1547E-3,5C000000,-0724,0962,10925,023.0,045.2,0.404,745.2,01.17,0.508
2013-11-08 02:16:00,1786E-3,5C000000,-0724,0962,10913,023.0,045.2,0.404,745.2,01.17,0.508
2013-11-08 02:17:00,1661E-3,5C000000,-0724,0962,10910,023.0,045.2,0.404,745.2,01.17,0.508
2013-11-08 02:18:00,1579E-3,5C000000,-0724,0961,10829,023.0,045.2,0.404,745.2,01.17,0.508
2013-11-08 02:19:00,1603E-3,5C000000,-0724,0961,10988,023.0,045.2,0.404,745.2,01.17,0.508
2013-11-08 02:20:00,1709E-3,5C000000,-0724,0961,10891,023.0,045.2,0.404,745.2,01.17,0.508
2013-11-08 02:21:00,1459E-3,5C000000,-0724,0961,10778,023.0,045.2,0.404,745.2,01.17,0.508
2013-11-08 02:22:00,1475E-3,5C000000,-0724,0961,10948,023.0,045.2,0.404,745.2,01.17,0.508
2013-11-08 02:23:00,1528E-3,5C000000,-0724,0962,10901,023.0,045.2,0.404,745.2,01.17,0.508
2013-11-08 02:24:00,1395E-3,5C000000,-0724,0961,10854,023.0,045.2,0.404,745.1,01.17,0.508
2013-11-08 02:25:00,1531E-3,5C000000,-0724,0961,10835,023.0,045.2,0.404,745.2,01.17,0.508
2013-11-08 02:26:00,1380E-3,5C000000,-0724,0962,10849,023.0,045.2,0.404,745.2,01.17,0.508
2013-11-08 02:27:00,1337E-3,5C000000,-0724,0962,10845,022.9,045.2,0.404,745.2,01.17,0.508
2013-11-08 02:28:00,1503E-3,5C000000,-0724,0963,10956,023.0,045.2,0.404,745.1,01.17,0.508
2013-11-08 02:29:00,1593E-3,5C000000,-0724,0962,10800,023.0,045.2,0.404,745.1,01.17,0.508
2013-11-08 02:30:00,1497E-3,5C000000,-0724,0962,10923,023.0,045.2,0.404,745.2,01.17,0.508
2013-11-08 02:31:00,1512E-3,5C000000,-0724,0962,10922,023.0,045.2,0.404,745.2,01.17,0.508
2013-11-08 02:32:00,1538E-3,5C000000,-0724,0962,10914,023.0,045.2,0.404,745.2,01.17,0.508
2013-11-08 02:33:00,1390E-3,5C000000,-0724,0962,10952,023.0,045.2,0.404,745.2,01.17,0.508
2013-11-08 02:34:00,1476E-3,5C000000,-0724,0962,10943,023.0,045.2,0.404,745.2,01.17,0.508
2013-11-08 02:35:00,1472E-3,5C000000,-0724,0961,10980,023.0,045.2,0.404,745.2,01.17,0.508
2013-11-08 02:36:00,1394E-3,5C000000,-0724,0962,10884,023.0,045.2,0.404,745.2,01.17,0.508
2013-11-08 02:37:00,1509E-3,5C000000,-0724,0962,10998,023.0,045.2,0.404,745.2,01.17,0.508
2013-11-08 02:38:00,1460E-3,5C000000,-0724,0961,10774,023.0,045.2,0.404,745.2,01.17,0.508
2013-11-08 02:39:00,1451E-3,5C000000,-0724,0962,10958,023.0,045.2,0.404,745.2,01.17,0.508
2013-11-08 02:40:00,1400E-3,5C000000,-0724,0962,10922,023.0,045.2,0.404,745.2,01.17,0.508
2013-11-08 02:41:00,1487E-3,5C000000,-0724,0962,10938,023.0,045.2,0.404,745.2,01.17,0.508
2013-11-08 02:42:00,1384E-3,5C000000,-0724,0962,10929,023.0,045.2,0.404,745.1,01.17,0.508
2013-11-08 02:43:00,1374E-3,5C000000,-0724,0962,10944,023.0,045.2,0.404,745.1,01.17,0.508
2013-11-08 02:44:00,1343E-3,5C000000,-0724,0962,11027,023.0,045.2,0.404,745.1,01.17,0.508
2013-11-08 02:45:00,1459E-3,5C000000,-0724,0963,11024,023.0,045.2,0.404,745.1,01.17,0.508
2013-11-08 02:46:00,1455E-3,5C000000,-0724,0962,10893,023.0,045.2,0.404,745.1,01.17,0.508
2013-11-08 02:47:00,1372E-3,5C000000,-0724,0962,10962,023.0,045.2,0.404,745.1,01.17,0.508
2013-11-08 02:48:00,1303E-3,5C000000,-0724,0962,10913,023.0,045.2,0.404,745.1,01.17,0.508
2013-11-08 02:49:00,1396E-3,5C000000,-0724,0962,10981,023.0,045.2,0.404,745.1,01.17,0.508
2013-11-08 02:50:00,1332E-3,5C000000,-0724,0962,10947,023.0,045.2,0.404,745.1,01.17,0.508
2013-11-08 02:51:00,1364E-3,5C000000,-0724,0962,10904,023.0,045.2,0.404,745.1,01.17,0.508
2013-11-08 02:52:00,1474E-3,5C000000,-0724,0962,10839,023.0,045.2,0.404,745.1,01.17,0.508
2013-11-08 02:53:00,1231E-3,5C000000,-0724,0962,10935,023.0,045.2,0.404,745.0,01.17,0.508
2013-11-08 02:54:00,1388E-3,5C000000,-0724,0962,10882,023.0,045.2,0.404,745.1,01.17,0.508
2013-11-08 02:55:00,1255E-3,5C000000,-0724,0963,10976,023.0,045.2,0.404,745.0,01.17,0.508
2013-11-08 02:56:00,1279E-3,5C000000,-0724,0963,10878,023.0,045.2,0.404,745.1,01.17,0.508
2013-11-08 02:57:00,1277E-3,5C000000,-0724,0962,10833,023.0,045.2,0.404,745.0,01.17,0.508
2013-11-08 02:58:00,1348E-3,5C000000,-0724,0962,10885,023.0,045.2,0.404,745.0,01.17,0.508
2013-11-08 02:59:00,1324E-3,5C000000,-0724,0962,10994,023.0,045.2,0.404,745.0,01.17,0.508
2013-11-08 03:00:00,1172E-3,5C000000,-0724,0962,10884,023.0,045.2,0.404,745.0,01.17,0.508
2013-11-08 03:01:00,1263E-3,5C000000,-0724,0962,10964,023.0,045.2,0.404,745.0,01.17,0.508
2013-11-08 03:02:00,1046E-3,5C000000,-0724,0962,10776,023.0,045.2,0.404,745.0,01.17,0.508
2013-11-08 03:03:00,1196E-3,5C000000,-0724,0962,10984,023.0,045.2,0.404,745.1,01.17,0.508
2013-11-08 03:04:00,1162E-3,5C000000,-0724,0962,10872,023.0,045.2,0.404,745.1,01.17,0.508
2013-11-08 03:05:00,1072E-3,5C000000,-0724,0963,10975,023.0,045.2,0.404,745.0,01.17,0.508
2013-11-08 03:06:00,1170E-3,5C000000,-0724,0962,10793,023.0,045.2,0.404,745.0,01.17,0.508
2013-11-08 03:07:00,1102E-3,5C000000,-0724,0962,11005,023.0,045.2,0.404,745.0,01.17,0.508
2013-11-08 03:08:00,1134E-3,5C000000,-0724,0963,10925,023.0,045.2,0.403,745.0,01.17,0.508
2013-11-08 03:09:00,1189E-3,5C000000,-0724,0962,10784,023.0,045.2,0.404,744.9,01.17,0.508
2013-11-08 03:10:00,1139E-3,5C000000,-0724,0963,10978,023.0,045.2,0.404,744.9,01.17,0.508
2013-11-08 03:11:00,1055E-3,5C000000,-0724,0962,10930,023.0,045.2,0.404,744.9,01.17,0.508
2013-11-08 03:12:00,1021E-3,5C000000,-0724,0962,10919,023.0,045.2,0.404,744.9,01.17,0.508
2013-11-08 03:13:00,1007E-3,5C000000,-0724,0962,10788,023.0,045.2,0.404,744.9,01.17,0.508
2013-11-08 03:14:00,1032E-3,5C000000,-0724,0962,10985,023.0,045.2,0.403,744.9,01.17,0.508
2013-11-08 03:15:00,1092E-3,5C000000,-0724,0962,10874,023.0,045.2,0.404,744.9,01.17,0.508
2013-11-08 03:16:00,1083E-3,5C000000,-0724,0963,10832,023.0,045.2,0.404,744.9,01.17,0.508
2013-11-08 03:17:00,1010E-3,5C000000,-0724,0963,10889,023.0,045.2,0.404,744.9,01.17,0.508
2013-11-08 03:18:00,1058E-3,5C000000,-0724,0963,10856,023.0,045.2,0.404,744.9,01.17,0.508
2013-11-08 03:19:00,1133E-3,5C000000,-0724,0962,10747,023.0,045.2,0.404,744.9,01.17,0.508
2013-11-08 03:20:00,9941E-4,5C000000,-0724,0961,11028,023.0,045.2,0.403,744.9,01.17,0.508
2013-11-08 03:21:00,1026E-3,5C000000,-0724,0962,10953,023.0,045.1,0.404,744.9,01.17,0.508
2013-11-08 03:22:00,9274E-4,5C000000,-0724,0962,10745,023.0,045.2,0.404,744.9,01.17,0.508
2013-11-08 03:23:00,1134E-3,5C000000,-0724,0962,10887,023.0,045.2,0.404,744.9,01.17,0.508
2013-11-08 03:24:00,1107E-3,5C000000,-0724,0961,10762,023.0,045.2,0.404,744.9,01.17,0.508
2013-11-08 03:25:00,1028E-3,5C000000,-0724,0961,10847,023.0,045.2,0.404,745.0,01.17,0.508
2013-11-08 03:26:00,1092E-3,5C000000,-0724,0963,10941,023.0,045.2,0.403,744.9,01.17,0.508
2013-11-08 03:27:00,9876E-4,5C000000,-0724,0962,10870,023.0,045.2,0.403,744.9,01.17,0.508
2013-11-08 03:28:00,9515E-4,5C000000,-0724,0962,10967,023.0,045.2,0.404,744.9,01.17,0.508
2013-11-08 03:29:00,1058E-3,5C000000,-0724,0963,10974,023.0,045.2,0.404,744.9,01.17,0.508
2013-11-08 03:30:00,1184E-3,5C000000,-0724,0962,10819,023.0,045.2,0.404,744.9,01.17,0.508
2013-11-08 03:31:00,1028E-3,5C000000,-0724,0962,10817,023.0,045.2,0.404,744.9,01.17,0.508
2013-11-08 03:32:00,1099E-3,5C000000,-0724,0962,10956,023.0,045.2,0.404,744.9,01.17,0.508
2013-11-08 03:33:00,1186E-3,5C000000,-0724,0962,10930,023.0,045.2,0.403,744.9,01.17,0.508
2013-11-08 03:34:00,9325E-4,5C000000,-0724,0963,11062,023.0,045.2,0.403,744.9,01.17,0.508
2013-11-08 03:35:00,1072E-3,5C000000,-0724,0962,11032,023.0,045.2,0.404,744.9,01.17,0.508
2013-11-08 03:36:00,1006E-3,5C000000,-0724,0963,10783,023.0,045.2,0.404,744.9,01.17,0.508
2013-11-08 03:37:00,9660E-4,5C000000,-0724,0962,11021,023.1,045.2,0.404,744.9,01.17,0.508
2013-11-08 03:38:00,9968E-4,5C000000,-0724,0962,10852,023.0,045.2,0.404,744.8,01.17,0.508
2013-11-08 03:39:00,1017E-3,5C000000,-0724,0962,10990,023.0,045.2,0.404,744.9,01.17,0.508
2013-11-08 03:40:00,1010E-3,5C000000,-0724,0961,10856,023.0,045.2,0.404,744.9,01.17,0.508
2013-11-08 03:41:00,1012E-3,5C000000,-0724,0962,10841,023.1,045.2,0.403,744.8,01.17,0.508
2013-11-08 03:42:00,9167E-4,5C000000,-0724,0963,10789,023.0,045.2,0.403,744.8,01.17,0.508
2013-11-08 03:43:00,8505E-4,5C000000,-0724,0961,10926,023.1,045.2,0.404,744.8,01.17,0.508
2013-11-08 03:44:00,1033E-3,5C000000,-0724,0961,10874,023.0,045.2,0.404,744.8,01.17,0.508
2013-11-08 03:45:00,9318E-4,5C000000,-0724,0962,10879,023.1,045.2,0.404,744.8,01.17,0.508
2013-11-08 03:46:00,9605E-4,5C000000,-0724,0962,10930,023.0,045.2,0.404,744.8,01.17,0.508
2013-11-08 03:47:00,1040E-3,5C000000,-0724,0963,10894,023.1,045.2,0.403,744.8,01.17,0.508
2013-11-08 03:48:00,1032E-3,5C000000,-0724,0963,10983,023.1,045.2,0.403,744.8,01.17,0.508
2013-11-08 03:49:00,9713E-4,5C000000,-0724,0962,10860,023.1,045.2,0.404,744.8,01.17,0.508
2013-11-08 03:50:00,9475E-4,5C000000,-0724,0962,10798,023.1,045.2,0.404,744.7,01.17,0.508
2013-11-08 03:51:00,8722E-4,5C000000,-0724,0963,10776,023.1,045.2,0.404,744.8,01.17,0.508
2013-11-08 03:52:00,1053E-3,5C000000,-0724,0963,10945,023.1,045.2,0.404,744.8,01.17,0.508
2013-11-08 03:53:00,1018E-3,5C000000,-0724,0963,10865,023.1,045.2,0.403,744.8,01.17,0.508
2013-11-08 03:54:00,9928E-4,5C000000,-0724,0962,10921,023.1,045.2,0.403,744.8,01.17,0.508
2013-11-08 03:55:00,8918E-4,5C000000,-0724,0963,10924,023.1,045.2,0.404,744.7,01.17,0.508
2013-11-08 03:56:00,8944E-4,5C000000,-0724,0962,10811,023.1,045.2,0.404,744.8,01.17,0.508
2013-11-08 03:57:00,9770E-4,5C000000,-0724,0963,10936,023.1,045.2,0.404,744.8,01.17,0.508
2013-11-08 03:58:00,9864E-4,5C000000,-0724,0961,10842,023.1,045.2,0.404,744.8,01.17,0.508
2013-11-08 03:59:00,9506E-4,5C000000,-0724,0962,10902,023.1,045.2,0.403,744.8,01.17,0.508
2013-11-08 04:00:00,9555E-4,5C000000,-0724,0962,10867,023.1,045.2,0.403,744.8,01.17,0.508
2013-11-08 04:01:00,1111E-3,5C000000,-0724,0963,10934,023.1,045.2,0.403,744.7,01.17,0.508
2013-11-08 04:02:00,1080E-3,5C000000,-0724,0962,10759,023.1,045.2,0.404,744.7,01.17,0.508
2013-11-08 04:03:00,1128E-3,5C000000,-0724,0962,10820,023.1,045.2,0.404,744.7,01.17,0.508
2013-11-08 04:04:00,1093E-3,5C000000,-0724,0963,10913,023.1,045.2,0.404,744.7,01.17,0.508
2013-11-08 04:05:00,1071E-3,5C000000,-0724,0963,10940,023.1,045.2,0.404,744.7,01.17,0.508
2013-11-08 04:06:00,1110E-3,5C000000,-0724,0963,11012,023.1,045.2,0.403,744.7,01.17,0.508
2013-11-08 04:07:00,1014E-3,5C000000,-0724,0962,10863,023.1,045.2,0.403,744.7,01.17,0.508
2013-11-08 04:08:00,1098E-3,5C000000,-0724,0963,11014,023.1,045.2,0.404,744.7,01.17,0.508
2013-11-08 04:09:00,1014E-3,5C000000,-0724,0962,10905,023.1,045.2,0.404,744.7,01.17,0.508
2013-11-08 04:10:00,1065E-3,5C000000,-0724,0963,10889,023.1,045.2,0.404,744.7,01.17,0.508
2013-11-08 04:11:00,1057E-3,5C000000,-0724,0962,10889,023.1,045.2,0.404,744.7,01.17,0.508
2013-11-08 04:12:00,1117E-3,5C000000,-0724,0962,10969,023.1,045.2,0.403,744.7,01.17,0.508
2013-11-08 04:13:00,1101E-3,5C000000,-0724,0962,10988,023.1,045.2,0.403,744.7,01.17,0.508
2013-11-08 04:14:00,1099E-3,5C000000,-0724,0963,10899,023.1,045.2,0.403,744.7,01.17,0.508
2013-11-08 04:15:00,1040E-3,5C000000,-0724,0962,11015,023.1,045.2,0.404,744.7,01.17,0.508
2013-11-08 04:16:00,1105E-3,5C000000,-0724,0963,10785,023.1,045.2,0.404,744.7,01.17,0.508
2013-11-08 04:17:00,1089E-3,5C000000,-0724,0962,10957,023.1,045.2,0.404,744.7,01.17,0.508
2013-11-08 04:18:00,1118E-3,5C000000,-0724,0962,10976,023.1,045.2,0.404,744.7,01.17,0.508
2013-11-08 04:19:00,1020E-3,5C000000,-0724,0961,10896,023.1,045.2,0.403,744.7,01.17,0.508
2013-11-08 04:20:00,1026E-3,5C000000,-0724,0962,10912,023.1,045.2,0.403,744.7,01.17,0.508